Vertical_Velocity
8 -4 6 19 2 -0 -5 -0 4 7 3 3 4 6 4 1 0 1 1 2 1 -1 0 -0 -1 -1 -1 -1 -2 -1 -1 0 -0 -1 -2 -2 -0 -1 -1 -1 -1 -1 -3
-0 -4 -10 5 1 2 2 -0 1 4 3 2 1 -1 -1 -3 -4 -1 2 2 0 -0 -0 -0 0 -0 -1 0 -0 -1 -2 -2 -1 -1 -1 -2 -1 -1 -2 -2 -3 -2 -4
-8 1 -8 -1 9 3 -2 0 2 4 4 3 -1 1 1 2 6 5 5 1 -2 1 1 -0 0 -1 0 -0 -1 -1 -1 -1 -2 -2 -1 -2 -3 -2 -4 -4 -1 -4 -5
4 -10 -4 -0 4 11 4 -3 0 3 2 -2 3 4 3 2 -3 -3 -5 -0 2 2 1 -0 0 -0 0 0 0 0 0 0 -0 -1 -2 -1 -0 -0 3 -5 -3 -3 -3
11 2 0 -1 -3 9 10 7 5 3 3 -1 3 1 1 -0 0 -0 1 3 4 2 1 1 0 -0 -0 -1 -0 -1 -1 -0 -1 -1 0 -0 -0 1 1 11 0 -6 -6
9 4 11 7 13 10 -0 5 1 3 -0 1 4 5 1 -2 3 3 4 3 2 1 1 2 1 -0 -0 0 0 -1 -0 -0 -1 -1 -1 -1 -1 -2 -1 4 9 18 1
-1 4 4 7 4 -2 7 5 -1 6 -0 -0 -1 6 2 2 -0 1 1 1 0 1 2 3 3 1 1 1 0 -0 0 1 1 1 -0 -1 0 -1 -1 -3 -2 2 19
-5 -5 -0 3 2 -1 4 25 1 7 3 3 1 1 1 6 -4 1 1 -2 0 2 5 5 1 2 1 1 0 0 1 -0 0 1 -1 -0 0 -1 -1 -2 -4 3 -2
4 6 -2 0 -1 1 -5 8 1 6 2 5 0 1 -3 7 4 -2 4 -2 4 6 2 -0 2 2 0 0 0 1 1 -1 -0 -0 -1 -1 -1 -2 -3 -3 -4 -10 -3
0 11 4 3 4 3 14 0 3 8 1 6 4 -2 2 4 -2 -9 6 4 5 3 2 2 3 2 0 -1 1 0 -0 -0 -1 -1 -1 0 -2 -4 -4 -4 -5 -10 -10
-6 -4 0 2 8 14 1 7 -1 1 0 -2 1 4 5 5 -3 -0 -0 5 3 -1 3 -0 2 1 1 0 1 0 -0 -1 0 -1 -2 -0 -1 -2 -2 -4 -5 -5 -10
5 -4 1 2 0 9 7 -11 5 5 -7 9 4 0 1 2 1 6 0 -0 3 3 3 0 1 0 0 2 1 1 -0 -1 -1 0 -2 -1 -3 -2 -2 -2 -5 -3 -4
-2 0 -12 -5 -9 -2 -2 1 3 15 2 4 -3 3 2 1 3 0 3 2 5 -4 1 0 2 1 0 1 0 1 -0 -0 -1 -0 -2 -3 -1 -3 -4 -4 -4 -3 -3
3 -10 3 5 4 10 5 1 7 -3 3 -4 -5 -2 -2 2 1 3 0 -4 -3 -0 2 2 -1 -0 0 2 1 -0 0 -1 0 -1 -1 -1 -2 -3 -3 -1 -5 -3 -5
1 1 1 -0 -1 5 1 -10 20 9 7 3 2 4 5 3 -2 3 3 4 2 2 3 1 0 0 0 1 0 1 0 -1 0 -1 -1 -3 -4 -2 -3 -3 2 -1 -3
8 2 -4 -2 -11 16 -3 1 11 7 2 0 7 1 -0 2 0 1 5 3 -0 3 2 2 -1 -2 -0 1 1 3 -1 1 0 -0 -3 -5 -4 -3 -3 -4 -9 -7 -10
2 3 -6 -6 -3 11 -1 10 14 8 5 5 0 -2 0 7 -1 4 2 3 2 1 4 0 0 -1 2 0 1 3 -0 -1 -0 -1 -2 -3 -5 -3 -3 -1 -6 -6 -6
-3 1 -9 -6 1 12 4 6 -10 2 1 16 9 21 4 3 1 2 2 4 3 3 1 1 1 0 -0 1 -0 2 0 0 -2 -1 -6 -1 3 -3 -4 -3 2 3 -2
3 2 7 -5 -0 -5 -1 16 -0 2 0 29 18 16 3 0 2 5 3 3 2 1 4 3 1 -1 1 0 1 2 -1 -1 -3 -4 -1 -3 -2 -4 -5 -2 -1 -0 -2
-0 -10 -5 -5 -3 4 12 -7 -1 6 28 16 16 10 1 4 -1 0 4 -5 2 3 2 1 -0 1 1 1 -1 -3 -2 -1 2 -8 -7 -7 -7 -5 -3 -6 -4 -2 -3
5 5 1 4 -4 -3 -2 20 15 12 11 3 5 4 1 2 -5 3 4 2 1 1 2 4 -2 -2 -1 -1 -6 -2 -0 2 -3 -2 -5 -2 -3 -4 -5 -8 -6 -5 -2
-4 -2 2 -0 -1 2 6 6 15 11 5 7 2 6 -3 1 5 2 -0 3 4 7 0 1 1 -1 -3 -4 1 -0 -3 -7 -3 1 -2 0 -6 -4 -4 -3 -2 -2 -4
2 -1 8 4 8 -2 5 9 7 5 7 14 5 6 10 4 2 -7 10 4 -0 1 2 -1 -3 -0 1 1 -2 -5 -4 -2 -1 -4 -6 -4 -5 -4 -2 -5 -4 -5 -2
5 -2 1 7 2 5 9 8 3 -3 7 3 2 -1 3 1 8 2 1 2 4 2 -0 -1 3 -3 -1 -3 -3 -3 -1 -3 -4 -3 -5 -6 -4 -1 -2 0 -4 -11 -6
7 10 0 -1 -0 1 7 -0 -1 4 -1 0 -4 11 6 -5 4 2 2 1 -0 -1 3 2 1 -2 -0 -3 -2 -8 -6 -4 -1 0 1 -0 -3 -3 -8 -7 -4 -8 -3
1 6 5 2 -1 -2 7 3 1 2 7 3 7 8 -0 1 3 -1 -0 1 4 5 2 1 -2 -0 -5 -2 -4 -6 -5 -3 -0 -3 -0 -0 -4 -5 -6 -10 4 1 -5
Height
5690 5700 5711 5720 5730 5738 5749 5759 5766 5773 5779 5784 5790 5795 5798 5801 5805 5809 5812 5814 5816 5818 5820 5821 5823 5824 5825 5826 5826 5826 5826 5826 5825 5823 5822 5821 5819 5817 5815 5812 5809 5807 5805
5673 5683 5697 5708 5720 5727 5739 5748 5757 5764 5770 5776 5780 5785 5789 5793 5798 5802 5805 5807 5809 5812 5814 5815 5817 5818 5819 5820 5820 5820 5819 5818 5817 5816 5815 5814 5812 5810 5807 5804 5801 5799 5796
5661 5670 5683 5698 5706 5715 5728 5739 5748 5755 5761 5767 5771 5776 5782 5787 5792 5795 5797 5800 5803 5805 5807 5809 5810 5812 5813 5813 5813 5813 5812 5811 5810 5808 5807 5806 5804 5802 5798 5796 5794 5790 5787
5655 5661 5670 5684 5698 5705 5715 5727 5736 5744 5751 5757 5762 5768 5774 5779 5782 5784 5788 5792 5795 5798 5800 5802 5803 5805 5805 5806 5806 5806 5805 5804 5803 5801 5800 5798 5797 5796 5794 5789 5786 5782 5778
5643 5650 5663 5676 5689 5694 5707 5717 5725 5732 5740 5747 5753 5759 5764 5769 5772 5777 5781 5785 5787 5789 5792 5794 5796 5797 5797 5798 5798 5797 5797 5796 5795 5794 5792 5791 5789 5788 5786 5784 5779 5773 5768
5631 5638 5647 5659 5670 5681 5688 5700 5712 5721 5730 5738 5744 5750 5755 5760 5765 5770 5773 5776 5778 5780 5783 5785 5787 5788 5789 5789 5789 5789 5788 5787 5786 5785 5783 5781 5779 5777 5776 5774 5772 5768 5761
5621 5626 5634 5640 5653 5665 5678 5690 5700 5710 5719 5726 5733 5741 5746 5751 5756 5760 5764 5767 5769 5772 5775 5777 5778 5779 5779 5780 5780 5779 5779 5777 5776 5774 5772 5771 5769 5766 5764 5761 5758 5756 5753
5610 5616 5625 5632 5643 5656 5670 5679 5689 5700 5709 5716 5723 5730 5736 5741 5746 5752 5755 5758 5760 5763 5766 5768 5769 5769 5770 5770 5770 5769 5768 5767 5765 5763 5761 5759 5756 5754 5751 5747 5744 5741 5737
5601 5608 5617 5622 5631 5644 5657 5668 5674 5686 5696 5704 5711 5718 5726 5732 5737 5741 5745 5747 5752 5754 5756 5758 5759 5760 5760 5760 5760 5759 5758 5756 5754 5752 5750 5747 5744 5740 5736 5732 5728 5723 5720
5590 5598 5606 5613 5621 5634 5650 5659 5669 5678 5684 5695 5700 5706 5715 5721 5723 5729 5734 5739 5742 5745 5747 5748 5749 5750 5751 5750 5750 5749 5748 5746 5743 5741 5738 5735 5731 5727 5722 5718 5713 5707 5702
5580 5588 5596 5604 5615 5625 5636 5648 5658 5669 5676 5683 5689 5696 5703 5710 5713 5718 5724 5730 5733 5736 5737 5739 5739 5740 5740 5740 5739 5738 5737 5735 5732 5730 5726 5723 5718 5713 5708 5703 5697 5691 5684
5576 5582 5592 5596 5604 5615 5625 5638 5652 5659 5668 5673 5681 5688 5693 5699 5704 5708 5712 5718 5723 5725 5727 5728 5729 5730 5730 5729 5728 5727 5725 5723 5721 5718 5714 5709 5705 5699 5694 5688 5681 5674 5666
5568 5575 5582 5591 5596 5606 5618 5631 5642 5651 5657 5663 5669 5676 5681 5687 5695 5698 5704 5709 5713 5716 5717 5717 5718 5719 5719 5718 5717 5715 5714 5711 5709 5705 5701 5696 5691 5685 5679 5672 5664 5656 5648
5562 5570 5577 5582 5589 5597 5609 5621 5632 5640 5646 5651 5659 5666 5672 5681 5686 5689 5693 5698 5704 5707 5707 5707 5708 5709 5708 5707 5705 5704 5701 5699 5696 5692 5687 5682 5676 5670 5663 5656 5648 5639 5631
5555 5564 5571 5576 5583 5588 5599 5610 5622 5632 5639 5643 5651 5657 5666 5671 5676 5682 5687 5690 5693 5695 5695 5697 5698 5697 5697 5696 5694 5692 5689 5687 5682 5678 5673 5667 5661 5655 5647 5639 5631 5622 5612
5548 5555 5563 5568 5574 5581 5593 5603 5614 5624 5631 5639 5646 5653 5658 5661 5667 5674 5678 5680 5683 5684 5685 5686 5687 5686 5686 5685 5683 5681 5677 5674 5669 5664 5659 5653 5646 5639 5630 5621 5612 5601 5591
5540 5547 5555 5561 5568 5577 5587 5597 5606 5616 5625 5633 5639 5645 5650 5653 5659 5664 5666 5670 5672 5673 5674 5675 5676 5675 5674 5673 5671 5669 5665 5660 5655 5651 5645 5638 5630 5622 5614 5605 5594 5582 5571
5535 5542 5549 5555 5563 5572 5582 5590 5596 5606 5616 5624 5633 5637 5642 5645 5649 5653 5657 5659 5661 5662 5664 5665 5665 5664 5664 5662 5660 5656 5652 5646 5642 5636 5630 5623 5614 5606 5597 5589 5579 5566 5553
5532 5537 5544 5549 5558 5566 5574 5585 5594 5601 5609 5616 5622 5627 5630 5633 5637 5643 5647 5650 5652 5653 5654 5654 5655 5654 5653 5651 5647 5643 5639 5634 5627 5621 5614 5607 5598 5589 5579 5571 5559 5548 5536
5528 5533 5539 5544 5552 5561 5568 5578 5587 5595 5602 5607 5611 5615 5618 5623 5628 5633 5638 5641 5643 5644 5645 5645 5644 5643 5641 5638 5635 5631 5626 5621 5614 5606 5598 5589 5580 5570 5559 5550 5542 5532 5518
5526 5529 5532 5541 5546 5553 5563 5569 5577 5583 5589 5595 5599 5604 5609 5614 5621 5626 5629 5632 5634 5635 5635 5634 5633 5632 5629 5626 5622 5617 5612 5606 5599 5591 5582 5572 5562 5552 5542 5532 5520 5507 5495
5525 5527 5529 5536 5543 5550 5558 5565 5570 5574 5580 5586 5593 5597 5602 5609 5614 5616 5619 5622 5625 5625 5625 5623 5622 5620 5617 5613 5609 5603 5598 5592 5584 5574 5564 5555 5546 5536 5524 5510 5496 5482 5469
5524 5527 5530 5535 5542 5548 5554 5561 5567 5572 5577 5582 5588 5594 5599 5602 5605 5609 5613 5614 5615 5615 5613 5613 5611 5607 5604 5600 5595 5590 5583 5575 5568 5556 5548 5539 5529 5516 5502 5486 5473 5461 5449
5522 5525 5528 5533 5539 5545 5551 5557 5563 5568 5572 5577 5581 5586 5592 5596 5599 5603 5604 5604 5605 5604 5603 5601 5598 5596 5591 5586 5581 5574 5567 5559 5549 5540 5531 5521 5509 5495 5482 5467 5452 5441 5432
5519 5524 5528 5533 5539 5543 5547 5554 5559 5563 5568 5573 5579 5583 5586 5590 5592 5594 5595 5596 5595 5594 5591 5589 5585 5581 5578 5572 5566 5560 5552 5544 5536 5527 5515 5501 5487 5473 5460 5448 5437 5429 5421
5516 5522 5527 5531 5535 5542 5546 5551 5556 5560 5565 5570 5574 5576 5580 5583 5584 5586 5587 5586 5584 5582 5579 5576 5572 5570 5565 5559 5552 5543 5537 5530 5520 5508 5495 5481 5468 5457 5448 5439 5431 5420 5413